EXS32VA EGCC-LDDU

Flight info

Callsign EXS32VA
Flight time N/A
Altitude 37000
Route LISTO L612 HON L15 MOTOX DCT RUCAC DCT LESDO DCT BUBLI DCT LUVAL DCT SHARA DCT DEVDI DCT RIPUS DCT RESIA DCT TNT DCT LABIN DCT SPL L607 SIPAL
Aircraft A21N/M-SDE2E3FGHIJ1J3J4J5M1P2RWXYZ/LB1D1

Departure

Time 2026-05-05 11:18
Airport Manchester Airport (EGCC)

Arrival

Time N/A
Airport Dubrovnik Ruđer Bošković Airport (LDDU)
Time Latitude Longitude Altitude Speed Heading
2026-05-05 10:29 53.36766 -2.28748 261 ft 0 kts 315°
2026-05-05 11:03 53.36765 -2.28747 260 ft 1 kts 315°
2026-05-05 11:04 53.36749 -2.28719 260 ft 4 kts 315°
2026-05-05 11:04 53.36734 -2.28694 260 ft 4 kts 302°
2026-05-05 11:04 53.36733 -2.28664 260 ft 4 kts 232°
2026-05-05 11:04 53.36735 -2.28658 260 ft 4 kts 224°
2026-05-05 11:05 53.36716 -2.28690 260 ft 4 kts 224°
2026-05-05 11:05 53.36702 -2.28713 260 ft 0 kts 224°
2026-05-05 11:07 53.36700 -2.28717 260 ft 3 kts 225°
2026-05-05 11:08 53.36683 -2.28745 260 ft 9 kts 226°
2026-05-05 11:08 53.36656 -2.28783 260 ft 5 kts 202°
2026-05-05 11:08 53.36618 -2.28794 260 ft 6 kts 172°
2026-05-05 11:08 53.36575 -2.28750 260 ft 8 kts 137°
2026-05-05 11:09 53.36531 -2.28679 260 ft 9 kts 135°
2026-05-05 11:09 53.36482 -2.28596 260 ft 11 kts 135°
2026-05-05 11:09 53.36424 -2.28504 260 ft 12 kts 144°
2026-05-05 11:09 53.36340 -2.28458 260 ft 14 kts 146°
2026-05-05 11:10 53.36298 -2.28394 260 ft 15 kts 134°
2026-05-05 11:10 53.36281 -2.28363 260 ft 16 kts 134°
2026-05-05 11:10 53.36198 -2.28225 260 ft 17 kts 135°
2026-05-05 11:10 53.36110 -2.28078 260 ft 18 kts 136°
2026-05-05 11:11 53.36047 -2.27984 260 ft 0 kts 139°
2026-05-05 11:11 53.36047 -2.27983 260 ft 1 kts 139°
2026-05-05 11:11 53.36037 -2.27968 260 ft 3 kts 139°
2026-05-05 11:11 53.36019 -2.27944 260 ft 0 kts 141°
2026-05-05 11:12 53.36010 -2.27932 260 ft 3 kts 140°
2026-05-05 11:12 53.35987 -2.27900 260 ft 6 kts 140°
2026-05-05 11:12 53.35948 -2.27857 260 ft 8 kts 162°
2026-05-05 11:12 53.35892 -2.27851 260 ft 10 kts 185°
2026-05-05 11:13 53.35849 -2.27857 258 ft 12 kts 185°
2026-05-05 11:13 53.35757 -2.27871 253 ft 14 kts 185°
2026-05-05 11:13 53.35684 -2.27883 249 ft 11 kts 186°
2026-05-05 11:13 53.35609 -2.27937 245 ft 13 kts 229°
2026-05-05 11:14 53.35545 -2.28060 240 ft 15 kts 224°
2026-05-05 11:14 53.35450 -2.28152 240 ft 17 kts 192°
2026-05-05 11:14 53.35324 -2.28196 239 ft 19 kts 204°
2026-05-05 11:14 53.35213 -2.28338 237 ft 21 kts 232°
2026-05-05 11:15 53.35119 -2.28535 233 ft 23 kts 231°
2026-05-05 11:15 53.35011 -2.28748 232 ft 24 kts 226°
2026-05-05 11:15 53.34900 -2.28941 229 ft 20 kts 226°
2026-05-05 11:15 53.34806 -2.29112 223 ft 20 kts 231°
2026-05-05 11:16 53.34729 -2.29269 220 ft 9 kts 229°
2026-05-05 11:16 53.34684 -2.29324 219 ft 6 kts 204°
2026-05-05 11:16 53.34633 -2.29343 222 ft 9 kts 178°
2026-05-05 11:16 53.34567 -2.29315 218 ft 11 kts 147°
2026-05-05 11:17 53.34553 -2.29199 222 ft 12 kts 61°
2026-05-05 11:17 53.34612 -2.29071 223 ft 21 kts 52°
2026-05-05 11:17 53.34859 -2.28560 235 ft 89 kts 51°
2026-05-05 11:17 53.35361 -2.27522 248 ft 142 kts 50°
2026-05-05 11:18 53.36044 -2.26089 460 ft 162 kts 50°
2026-05-05 11:18 53.36744 -2.24599 983 ft 164 kts 47°
2026-05-05 11:18 53.37481 -2.23120 1511 ft 173 kts 50°
2026-05-05 11:18 53.37855 -2.21098 1859 ft 201 kts 94°
2026-05-05 11:19 53.37172 -2.18974 2364 ft 222 kts 138°
2026-05-05 11:19 53.35789 -2.17548 2846 ft 248 kts 153°
2026-05-05 11:19 53.34092 -2.16617 3414 ft 264 kts 175°
2026-05-05 11:19 53.32243 -2.16748 4248 ft 269 kts 188°
2026-05-05 11:20 53.30382 -2.17155 5145 ft 272 kts 188°
2026-05-05 11:20 53.28509 -2.17543 5994 ft 276 kts 187°
2026-05-05 11:20 53.26589 -2.17906 6829 ft 279 kts 187°
2026-05-05 11:20 53.24648 -2.18243 7671 ft 282 kts 187°
2026-05-05 11:21 53.22689 -2.18568 8492 ft 285 kts 187°
2026-05-05 11:21 53.20709 -2.18889 9367 ft 287 kts 187°
2026-05-05 11:21 53.18704 -2.19210 10170 ft 292 kts 188°
2026-05-05 11:21 53.16617 -2.19545 10587 ft 311 kts 187°
2026-05-05 11:22 53.14382 -2.19647 10958 ft 332 kts 175°
2026-05-05 11:22 53.12163 -2.18600 11621 ft 341 kts 160°
2026-05-05 11:22 53.09971 -2.17049 12393 ft 344 kts 158°
2026-05-05 11:22 53.07766 -2.15452 13216 ft 347 kts 158°
2026-05-05 11:23 53.05534 -2.13863 13968 ft 351 kts 159°
2026-05-05 11:23 53.03273 -2.12283 14645 ft 354 kts 159°
2026-05-05 11:23 53.00990 -2.10696 15355 ft 357 kts 159°
2026-05-05 11:23 52.98690 -2.09107 16061 ft 359 kts 160°
2026-05-05 11:24 52.96377 -2.07514 16775 ft 361 kts 160°
2026-05-05 11:24 52.94051 -2.05913 17479 ft 364 kts 160°
2026-05-05 11:24 52.91707 -2.04301 18154 ft 367 kts 160°
2026-05-05 11:24 52.89371 -2.02695 18740 ft 369 kts 160°
2026-05-05 11:25 52.86990 -2.01063 19316 ft 372 kts 160°
2026-05-05 11:25 52.84585 -1.99418 19899 ft 375 kts 160°
2026-05-05 11:25 52.82174 -1.97766 20462 ft 377 kts 160°
2026-05-05 11:25 52.79740 -1.96106 21040 ft 379 kts 160°
2026-05-05 11:26 52.77296 -1.94438 21594 ft 382 kts 160°
2026-05-05 11:26 52.74834 -1.92762 22138 ft 384 kts 160°
2026-05-05 11:26 52.72352 -1.91085 22685 ft 387 kts 160°
2026-05-05 11:26 52.69854 -1.89398 23221 ft 389 kts 160°
2026-05-05 11:27 52.67375 -1.87721 23709 ft 392 kts 160°
2026-05-05 11:27 52.64840 -1.86005 24144 ft 395 kts 159°
2026-05-05 11:27 52.62292 -1.84281 24588 ft 397 kts 159°
2026-05-05 11:27 52.59732 -1.82551 25026 ft 399 kts 159°
2026-05-05 11:28 52.57157 -1.80813 25458 ft 401 kts 159°
2026-05-05 11:28 52.54563 -1.79064 25897 ft 403 kts 159°
2026-05-05 11:28 52.51960 -1.77310 26318 ft 405 kts 159°
2026-05-05 11:28 52.49345 -1.75553 26725 ft 407 kts 159°
2026-05-05 11:29 52.46718 -1.73791 27157 ft 409 kts 159°
2026-05-05 11:29 52.44081 -1.72023 27558 ft 410 kts 159°
2026-05-05 11:29 52.41466 -1.70272 27930 ft 412 kts 159°
2026-05-05 11:29 52.38805 -1.68492 28297 ft 414 kts 159°
2026-05-05 11:30 52.36202 -1.66438 28639 ft 418 kts 150°
2026-05-05 11:30 52.33888 -1.63521 28982 ft 423 kts 138°
2026-05-05 11:30 52.31830 -1.60062 29339 ft 426 kts 135°
2026-05-05 11:30 52.29813 -1.56518 29668 ft 428 kts 135°
2026-05-05 11:31 52.27774 -1.52961 29996 ft 429 kts 135°
2026-05-05 11:31 52.25716 -1.49416 30291 ft 431 kts 136°
2026-05-05 11:31 52.23644 -1.45876 30564 ft 432 kts 136°
2026-05-05 11:31 52.21563 -1.42336 30867 ft 434 kts 136°
2026-05-05 11:32 52.19494 -1.38826 31141 ft 435 kts 136°
2026-05-05 11:32 52.17395 -1.35272 31411 ft 437 kts 136°
2026-05-05 11:32 52.15282 -1.31695 31673 ft 438 kts 136°
2026-05-05 11:32 52.13166 -1.28119 31930 ft 440 kts 136°
2026-05-05 11:33 52.11039 -1.24531 32181 ft 441 kts 136°
2026-05-05 11:33 52.08906 -1.20939 32501 ft 440 kts 136°
2026-05-05 11:33 52.06783 -1.17368 32822 ft 439 kts 136°
2026-05-05 11:33 52.04657 -1.13796 33133 ft 439 kts 136°
2026-05-05 11:34 52.02538 -1.10242 33452 ft 437 kts 136°
2026-05-05 11:34 52.00425 -1.06706 33768 ft 436 kts 136°
2026-05-05 11:34 51.98341 -1.03230 34030 ft 435 kts 136°
2026-05-05 11:34 51.96400 -0.99470 34203 ft 437 kts 126°
2026-05-05 11:35 51.94766 -0.95305 34364 ft 439 kts 123°
2026-05-05 11:35 51.93176 -0.91079 34501 ft 440 kts 123°
2026-05-05 11:35 51.91569 -0.86857 34659 ft 440 kts 123°
2026-05-05 11:35 51.89940 -0.82649 34834 ft 441 kts 124°
2026-05-05 11:36 51.88299 -0.78457 34985 ft 441 kts 124°
2026-05-05 11:36 51.86652 -0.74277 35143 ft 441 kts 124°
2026-05-05 11:36 51.85001 -0.70093 35293 ft 442 kts 124°
2026-05-05 11:36 51.83367 -0.65955 35444 ft 442 kts 124°
2026-05-05 11:37 51.81712 -0.61773 35589 ft 442 kts 124°
2026-05-05 11:37 51.80052 -0.57584 35725 ft 443 kts 124°
2026-05-05 11:37 51.78389 -0.53397 35880 ft 442 kts 124°
2026-05-05 11:37 51.76729 -0.49221 36022 ft 443 kts 124°
2026-05-05 11:38 51.75065 -0.45044 36187 ft 442 kts 124°
2026-05-05 11:38 51.73396 -0.40867 36317 ft 443 kts 124°
2026-05-05 11:38 51.71731 -0.36698 36437 ft 443 kts 124°
2026-05-05 11:38 51.70061 -0.32522 36557 ft 443 kts 124°
2026-05-05 11:39 51.68388 -0.28356 36683 ft 443 kts 124°
2026-05-05 11:39 51.66713 -0.24184 36790 ft 443 kts 124°
2026-05-05 11:39 51.65040 -0.20022 36909 ft 443 kts 124°
2026-05-05 11:39 51.63388 -0.15909 37013 ft 444 kts 124°
2026-05-05 11:40 51.61710 -0.11742 37024 ft 444 kts 124°
2026-05-05 11:40 51.58346 -0.03417 37008 ft 444 kts 124°
2026-05-05 11:41 51.54977 0.04882 36971 ft 445 kts 125°
2026-05-05 11:41 51.51600 0.13189 36969 ft 444 kts 125°
2026-05-05 11:42 51.48264 0.21365 36965 ft 445 kts 125°
2026-05-05 11:42 51.44867 0.29652 36966 ft 444 kts 125°
2026-05-05 11:43 51.41470 0.37923 36966 ft 446 kts 125°
2026-05-05 11:43 51.38055 0.46204 36967 ft 445 kts 125°
2026-05-05 11:44 51.34630 0.54488 36962 ft 445 kts 125°
2026-05-05 11:44 51.31193 0.62766 37072 ft 449 kts 126°
2026-05-05 11:45 51.27751 0.71038 37069 ft 448 kts 125°
2026-05-05 11:45 51.24331 0.79227 37042 ft 447 kts 126°
2026-05-05 11:46 51.20881 0.87465 37023 ft 447 kts 126°
2026-05-05 11:46 51.17425 0.95687 36958 ft 447 kts 126°
2026-05-05 11:47 51.13954 1.03916 36966 ft 446 kts 126°
2026-05-05 11:47 51.10505 1.12072 36963 ft 446 kts 126°
2026-05-05 11:48 51.05289 1.24359 36958 ft 448 kts 126°
2026-05-05 11:48 51.01804 1.32530 36948 ft 447 kts 126°
2026-05-05 11:49 50.98307 1.40698 36945 ft 447 kts 126°
2026-05-05 11:49 50.95049 1.49057 36940 ft 449 kts 117°
2026-05-05 11:50 50.92578 1.58204 36933 ft 451 kts 115°
2026-05-05 11:50 50.90144 1.67375 36933 ft 452 kts 115°
2026-05-05 11:51 50.87103 1.75964 36919 ft 447 kts 133°
2026-05-05 11:51 50.82725 1.82768 36925 ft 443 kts 139°
2026-05-05 11:52 50.78216 1.89432 36923 ft 443 kts 139°
2026-05-05 11:52 50.73751 1.96123 36917 ft 444 kts 139°
2026-05-05 11:53 50.69284 2.02823 36919 ft 444 kts 139°
2026-05-05 11:53 50.64822 2.09501 36911 ft 443 kts 139°
2026-05-05 11:54 50.60380 2.16125 36896 ft 440 kts 139°
2026-05-05 11:54 50.55917 2.22760 36888 ft 440 kts 139°
2026-05-05 11:55 50.51442 2.29399 36896 ft 441 kts 139°
2026-05-05 11:55 50.47010 2.35956 36889 ft 440 kts 139°
2026-05-05 11:56 50.42548 2.42536 36890 ft 441 kts 139°
2026-05-05 11:56 50.38090 2.49096 36892 ft 439 kts 139°
2026-05-05 11:57 50.33660 2.55597 36890 ft 438 kts 139°
2026-05-05 11:57 50.29254 2.62042 36885 ft 437 kts 139°
2026-05-05 11:58 50.24815 2.68520 36884 ft 436 kts 139°
2026-05-05 11:58 50.20370 2.74991 36881 ft 435 kts 139°
2026-05-05 11:59 50.15930 2.81439 36886 ft 434 kts 140°
2026-05-05 11:59 50.11523 2.87818 36887 ft 434 kts 139°
2026-05-05 12:00 50.07085 2.94224 36884 ft 435 kts 140°
2026-05-05 12:00 50.02643 3.00620 36886 ft 436 kts 140°
2026-05-05 12:01 49.98205 3.06996 36880 ft 436 kts 140°
2026-05-05 12:01 49.93788 3.13325 36879 ft 435 kts 140°
2026-05-05 12:02 49.89344 3.19678 36858 ft 431 kts 140°
2026-05-05 12:02 49.84922 3.25976 36872 ft 433 kts 140°
2026-05-05 12:03 49.80395 3.32029 36857 ft 429 kts 148°
2026-05-05 12:03 49.75200 3.36511 36864 ft 427 kts 154°
2026-05-05 12:04 49.69964 3.40723 36858 ft 427 kts 154°
2026-05-05 12:04 49.64723 3.44990 36851 ft 426 kts 153°
2026-05-05 12:05 49.59464 3.49273 36850 ft 426 kts 153°
2026-05-05 12:05 49.55095 3.52826 36849 ft 428 kts 154°
2026-05-05 12:06 49.49000 3.57767 36846 ft 426 kts 154°
2026-05-05 12:06 49.43743 3.62019 36832 ft 427 kts 154°
2026-05-05 12:07 49.39377 3.65543 36839 ft 426 kts 154°
2026-05-05 12:07 49.34109 3.69787 36836 ft 427 kts 154°
2026-05-05 12:08 49.27989 3.74700 36830 ft 427 kts 154°
2026-05-05 12:08 49.23579 3.78234 36835 ft 428 kts 154°
2026-05-05 12:09 49.18339 3.82422 36821 ft 429 kts 154°
2026-05-05 12:09 49.13067 3.86625 36823 ft 429 kts 154°
2026-05-05 12:10 49.07784 3.90829 36823 ft 428 kts 154°
2026-05-05 12:10 49.02502 3.95020 36830 ft 426 kts 154°
2026-05-05 12:11 48.97259 3.99171 36824 ft 428 kts 154°
2026-05-05 12:11 48.91968 4.03352 36818 ft 429 kts 154°
2026-05-05 12:12 48.86674 4.07522 36819 ft 428 kts 154°
2026-05-05 12:12 48.81391 4.11673 36818 ft 428 kts 154°
2026-05-05 12:13 48.76495 4.16752 36814 ft 433 kts 136°
2026-05-05 12:13 48.72831 4.24033 36825 ft 436 kts 127°
2026-05-05 12:14 48.69370 4.31567 36819 ft 437 kts 127°
2026-05-05 12:14 48.65869 4.39038 36810 ft 435 kts 128°
2026-05-05 12:15 48.62347 4.46495 36831 ft 435 kts 128°
2026-05-05 12:15 48.58858 4.53861 36828 ft 434 kts 128°
2026-05-05 12:16 48.55345 4.61263 36819 ft 435 kts 128°
2026-05-05 12:16 48.51811 4.68688 36831 ft 437 kts 128°
2026-05-05 12:17 48.48290 4.76067 36805 ft 436 kts 128°
2026-05-05 12:17 48.44732 4.83493 36832 ft 438 kts 128°
2026-05-05 12:18 48.41178 4.90903 36827 ft 438 kts 128°
2026-05-05 12:18 48.37617 4.98308 36825 ft 436 kts 128°
2026-05-05 12:19 48.34043 5.05716 36844 ft 436 kts 128°
2026-05-05 12:19 48.30498 5.13109 36835 ft 438 kts 126°
2026-05-05 12:20 48.29067 5.17094 36824 ft 443 kts 115°
2026-05-05 12:20 48.28063 5.21489 36833 ft 445 kts 110°
2026-05-05 12:20 48.26332 5.30389 36837 ft 444 kts 109°
2026-05-05 12:21 48.24568 5.39282 36845 ft 445 kts 110°
2026-05-05 12:21 48.22783 5.48096 36848 ft 445 kts 110°
2026-05-05 12:22 48.20977 5.56963 36832 ft 445 kts 110°
2026-05-05 12:22 48.19164 5.65827 36850 ft 445 kts 110°
2026-05-05 12:23 48.17347 5.74694 36849 ft 445 kts 110°
2026-05-05 12:23 48.15518 5.83549 36848 ft 445 kts 110°
2026-05-05 12:24 48.13694 5.92340 36852 ft 447 kts 110°
2026-05-05 12:24 48.11850 6.01191 36839 ft 446 kts 111°
2026-05-05 12:25 48.09998 6.10043 36850 ft 445 kts 111°
2026-05-05 12:25 48.08144 6.18892 36857 ft 446 kts 111°
2026-05-05 12:26 48.06298 6.27667 36855 ft 445 kts 111°
2026-05-05 12:26 48.04429 6.36514 36862 ft 446 kts 111°
2026-05-05 12:27 48.02539 6.45398 36860 ft 448 kts 111°
2026-05-05 12:27 48.00660 6.54195 36862 ft 449 kts 111°
2026-05-05 12:28 47.98760 6.63044 36872 ft 449 kts 111°
2026-05-05 12:28 47.96681 6.71765 36862 ft 445 kts 115°
2026-05-05 12:29 47.94360 6.80340 36849 ft 444 kts 116°
2026-05-05 12:29 47.92049 6.88848 36869 ft 445 kts 116°
2026-05-05 12:30 47.89724 6.97388 36877 ft 445 kts 116°
2026-05-05 12:30 47.87390 7.05924 36873 ft 444 kts 116°
2026-05-05 12:31 47.85050 7.14463 36870 ft 447 kts 116°
2026-05-05 12:31 47.82704 7.22990 36847 ft 446 kts 116°
2026-05-05 12:32 47.80354 7.31475 36865 ft 445 kts 116°
2026-05-05 12:32 47.77995 7.39986 36872 ft 445 kts 116°
2026-05-05 12:33 47.75629 7.48505 36868 ft 447 kts 116°
2026-05-05 12:33 47.72937 7.56732 36854 ft 439 kts 128°
2026-05-05 12:34 47.69360 7.64002 36850 ft 438 kts 131°
2026-05-05 12:34 47.65707 7.71245 36849 ft 439 kts 130°
2026-05-05 12:35 47.62079 7.78520 36854 ft 439 kts 130°
2026-05-05 12:35 47.58458 7.85812 36859 ft 439 kts 130°
2026-05-05 12:36 47.54851 7.93031 36863 ft 438 kts 130°
2026-05-05 12:36 47.51216 8.00280 36873 ft 439 kts 131°
2026-05-05 12:37 47.47555 8.07535 36876 ft 440 kts 131°
2026-05-05 12:37 47.43896 8.14801 36875 ft 442 kts 131°
2026-05-05 12:38 47.40239 8.22039 36871 ft 439 kts 131°
2026-05-05 12:38 47.36578 8.29265 36871 ft 440 kts 131°
2026-05-05 12:39 47.32923 8.36444 36864 ft 443 kts 131°
2026-05-05 12:39 47.29231 8.43697 36871 ft 441 kts 131°
2026-05-05 12:40 47.25542 8.50935 36874 ft 443 kts 130°
2026-05-05 12:40 47.21920 8.58288 36878 ft 444 kts 130°
2026-05-05 12:41 47.18313 8.65573 36868 ft 444 kts 130°
2026-05-05 12:41 47.14669 8.72902 36863 ft 446 kts 131°